Powrót do katalogu

STARLINK-35553

AktywnyŁącznośćVLEO
NORAD 66120·PAYLOAD·🇺🇸 United States

Wystrzelony Oct 22, 2025 z Vandenberg Space Force Base

Loading…

Następne Przeloty (najbliższe 24 godziny)

TLE

ŚwieżeSource: CelesTrak SupGP

Epoka: Sep 14, 2026, 22:43 UTC

1 66120C 25237G   26257.94701389  .00031688  00000+0  93605-3 0  2575
2 66120  53.1576 237.3125 0001298  90.2805 220.9345 15.34380331    18

Śledź STARLINK-35553 w czasie rzeczywistym z AllMySat

Download on the App Store